Location: Lansingburgh
(42.7845°N, 73.6696°W)
Time: 03:24:55
(UTC+00:00)

Cosmos 1812 Rocket - Pass Details

Date: 24 January 2020
Orbit: 606 x 631 km, 82.5° (Epoch: 16 February)

Event Time Altitude Azimuth Distance (km) Brightness Sun altitude
Rises 22:19:49 0° 352° (N) 2,930 6.9 -4.7°
Reaches altitude 10° 22:22:04 10° 354° (N) 2,020 6.1 -5.1°
Maximum altitude 22:26:34 81° 81° (E) 645 3.6 -5.9°
Drops below altitude 10° 22:31:01 10° 170° (S) 2,005 6.3 -6.6°
Sets 22:33:15 0° 171° (S) 2,907 7.2 -7.0°
